Location: Newark
(51.8850°N, 0.2350°E)
Time: 11:33:56
(UTC+00:00)

N. Korean satellite - Visible Passes

Search period start: 23 September 2019 00:00
Search period end: 03 October 2019 00:00
Orbit: 455 x 509 km, 97.2° (Epoch: 22 September)

Date Brightness Start Highest point End Pass type
(mag) Time Alt. Az. Time Alt. Az. Time Alt. Az.
24 Sep 10.2 04:52:32 10° ENE 04:53:54 12° E 04:55:16 10° ESE visible
27 Sep 9.7 05:09:17 10° NE 05:11:45 18° E 05:14:13 10° SE visible
01 Oct 9.9 05:01:57 10° NE 05:04:07 16° E 05:06:16 10° SE visible
